www.pogodaiklimat.ru

АРХИВ ПОГОДЫ в Хьюстоне

Время (UTC), дата Ветер
(напр.,м/с)
 
Видим.   Явления Облачность Т
(С)
Тd
(С)
f
(%)
Тe
(С)
Тes
(С)
Комфортность

P
(гПа)

Po
(гПа)
Тmin
(С)
Tmax
(С)
R
(мм)
SD
(см)
10:53 16.06 В  16 км    2/2 750 м  +25.0  +24.0  94  +34  +34  очень
душно 
1013.0  1010.7  +25.0       
11:53 16.06 ЮВ  16 км    2/2 750 м  +26.7  +24.4  87  +37  +38  очень
душно 
1013.5  1011.4         
12:53 16.06 ЮВ  16 км    5/5 1140 м  +28.9  +24.4  77  +41  +42  опасность
перегрева 
1013.9  1011.7         
13:53 16.06 ЮВ  16 км    5/5 1140 м  +30.0  +24.4  72  +42  +43  опасность
перегрева 
1014.1  1012.1         
14:53 16.06 ЮВ  16 км    8/8 1050 м  +31.1  +22.8  61  +41  +42  опасность
перегрева 
1014.3  1012.1         
15:53 16.06 ЮВ  16 км    8/8 1410 м  +32.2  +22.2  56  +41  +43  опасность
перегрева 
1014.2  1012.1         
16:53 16.06 В  16 км    8/8 1500 м  +31.7  +22.2  57  +41  +43  опасность
перегрева 
1013.6  1011.4         
17:53 16.06 ЮВ  16 км    8/8 1470 м
[верхняя] 
+32.0  +23.0  59  +42  +43  опасность
перегрева 
1013.1  1011.1         
18:53 16.06 ЮВ  16 км    5/5 1500 м
[верхняя] 
+31.7  +22.8  59  +41  +45  опасность
перегрева 
1012.6  1010.4         
19:53 16.06 В  7
{10} 
16 км    5/5 1200 м
[верхняя] 
+32.0  +22.0  56  +41  +43  опасность
перегрева 
1012.5  1010.4         
20:53 16.06 ЮВ  10
{13} 
16 км    8/5 1050 м
[средняя верхняя] 
+31.7  +23.9  63  +43  +43  опасность
перегрева 
1012.4  1010.4         
21:53 16.06 ЮВ  7
{9} 
16 км    5/5 1050 м
[верхняя] 
+31.1  +23.3  63  +42  +43  опасность
перегрева 
1012.3  1010.1         
22:53 16.06 В  16 км    5/5 1050 м
[верхняя] 
+30.0  +23.3  67  +40  +41  очень
душно 
1012.6  1010.4  +29.4  +32.8     
23:53 16.06 ЮВ  16 км    5/5 600 м
[верхняя] 
+29.4  +22.8  68  +39  +39  очень
душно 
1012.7  1010.4         
00:53 17.06 ЮВ  16 км    5/2 600 м
[верхняя] 
+27.8  +23.9  79  +38  +38  очень
душно 
1012.8  1010.7         
01:53 17.06 В  16 км    5/2 600 м
[верхняя] 
+27.0  +24.0  84  +37  +37  очень
душно 
1012.9  1010.7         
02:53 17.06 В  16 км    5/2 600 м
[верхняя] 
+27.0  +24.0  84  +37  +37  очень
душно 
1013.2  1011.1         
03:53 17.06 В  16 км    5/5 900 м  +26.7  +24.4  87  +37  +37  очень
душно 
1013.4  1011.4         
04:53 17.06 ЮВ  16 км    5/5 750 м  +27.0  +25.0  89  +39  +39  очень
душно 
1013.4  1011.4  +26.7       
05:53 17.06 ЮВ  16 км  слабый дождь  5/5 660 м  +26.1  +25.0  94  +37  +37  очень
душно 
1012.8  1010.7         
06:53 17.06 ЮВ  16 км    5/5 630 м  +26.0  +25.0  94  +37  +37  очень
душно 
1012.4  1010.4         
07:53 17.06 ЮВ  16 км    5/5 540 м  +26.0  +25.0  94  +37  +37  очень
душно 
1012.0  1009.7         
08:53 17.06 ЮВ  16 км    8/8 660 м  +26.0  +24.0  89  +36  +36  очень
душно 
1011.9  1009.7         
09:53 17.06 штиль  16 км    5/5 660 м  +25.6  +24.4  93  +36  +36  очень
душно 
1011.8  1009.7         
10:53 17.06 штиль  16 км    5/5 840 м  +25.6  +25.0  96  +36  +36  очень
душно 
1011.9  1009.7  +25.6  +26.7     
11:53 17.06 ЮВ  16 км    5/5 900 м
[верхняя] 
+27.0  +25.0  89  +39  +39  очень
душно 
1012.4  1010.4         
12:53 17.06 В  16 км    8/8 750 м
[верхняя] 
+29.0  +25.0  79  +42  +42  опасность
перегрева 
1012.8  1010.7         
13:24 17.06 В  16 км    8/8 780 м  +28.3  +25.0  82  +41  +41  опасность
перегрева 
  1011.1         
13:53 17.06 В  16 км    8/8 780 м  +28.0  +26.0  89  +42  +43  опасность
перегрева 
1013.2  1011.1         
14:11 17.06 В  6
{9} 
3 км  дождь, дымка  10/10 750 м  +26.7  +26.7  100  +41  +41  опасность
перегрева 
  1011.1         
14:23 17.06 В  5 км  слабый дождь, дымка  10/10 750 м  +26.7  +26.7  100  +41  +41  опасность
перегрева 
  1011.1         
14:29 17.06 СВ  8 км  слабый дождь, дымка  8/8 750 м  +27.2  +27.2  100  +43  +45  опасность
перегрева 
  1011.4         
14:53 17.06 СВ  8 км  дымка  8/8 750 м  +27.8  +26.7  94  +43  +45  опасность
перегрева 
1013.4  1011.1         
15:53 17.06 штиль  16 км    8/5 840 м
[средняя верхняя] 
+29.4  +27.2  88  +47  +54  опасность
перегрева 
1013.1  1011.1         
16:53 17.06 В  6
{10} 
16 км    8/8 840 м
[верхняя] 
+30.0  +25.0  75  +43  +45  опасность
перегрева 
1012.5  1010.4  +26.1  +31.1  6.4   
17:53 17.06 В  8
{10} 
16 км    8/5 750 м
[средняя верхняя] 
+30.6  +25.0  72  +44  +45  опасность
перегрева 
1012.1  1010.1         
18:53 17.06 В  16 км    8/8 840 м
[верхняя] 
+30.0  +26.0  79  +45  +47  опасность
перегрева 
1011.7  1009.4         
19:53 17.06 В  16 км    8/8 1350 м
[средняя верхняя] 
+31.1  +25.0  70  +45  +46  опасность
перегрева 
1011.6  1009.4         
20:08 17.06 ЮВ  16 км  гроза  8/5 1050 м
[средняя верхняя] 
+30.6  +25.0  72  +44  +45  опасность
перегрева 
  1009.4         
20:25 17.06 В  16 км  гроза  8/8 1050 м
[верхняя] 
+30.0  +24.4  72  +42  +43  опасность
перегрева 
  1009.4         
20:46 17.06 В  16 км  гроза  8/5 1050 м
[средняя верхняя] 
+29.4  +25.0  77  +42  +45  опасность
перегрева 
  1009.7         
20:53 17.06 ЮВ  16 км  гроза  8/5 1050 м
[средняя верхняя] 
+29.4  +25.0  77  +42  +43  опасность
перегрева 
  1009.7         
21:07 17.06 В  6
{9} 
16 км    8/8 780 м
[верхняя] 
+29.4  +25.0  77  +42  +43  опасность
перегрева 
  1009.7         
21:53 17.06 ЮВ  7
{9} 
16 км    8/8 1050 м
[верхняя] 
+27.8  +25.0  85  +40  +41  очень
душно 
1012.4  1010.1         
22:53 17.06 ЮВ  16 км    8/5 900 м
[средняя верхняя] 
+27.2  +25.0  88  +39  +40  очень
душно 
1011.6  1009.4  +27.2  +31.7     
23:53 17.06 ЮВ  16 км    8/2 900 м
[средняя верхняя] 
+26.7  +25.0  90  +38  +39  очень
душно 
1012.3  1010.1         
00:53 18.06 ЮВ  16 км    8/8 750 м
[верхняя] 
+27.0  +24.0  84  +37  +37  очень
душно 
1012.8  1010.4         
01:53 18.06 ЮВ  16 км    8/8 690 м
[верхняя] 
+26.7  +24.4  87  +37  +37  очень
душно 
1013.3  1011.1         

 

Местоположение метеостанции Houston Hobby Airport: широта 29.6375 долгота -95.2825 высота над уровнем моря 14 м.

В архиве по умолчанию представлена погода в Хьюстоне за последние 1-2 суток. Обновление информации о фактической погоде в базе происходит ежечасно! Архивные данные за месяц целиком и за предыдущие месяцы Вы можете получить, выбрав интересующий диапазон дат из раскрывающегося списка и нажав кнопку "Ввод!".

Внимание! Архив погоды МЕТАР в базе сайта в настоящее время начинается c 1 января 2013 г. Нет смысла пытаться выбрать более раннюю дату.

Внимание! Время в таблицах - всемирное. Для получения местного времени необходимо прибавить поправку, которая в Хьюстоне равна -6 ч.

Ветер - указаны скорость ветра в м/с и направление, откуда дует ветер: С - северный, СВ - северо-восточный, В - восточный, ЮВ - юго-восточный, Ю - южный, ЮЗ - юго-западный, З - западный, СЗ - северо-западный.
Видимость - горизонтальная дальность видимости в метрах или километрах. При видимости от 1 до 10 км при отсутствии осадков обычно наблюдается дымка, при ухудшении видимости до 1 км и менее - туман. В сухую погоду видимость может ухудшаться дымом, пылью или мглою.
Атмосферные явления - указаны явления, наблюдавшиеся в указанный момент времени.
Облачность - указаны через наклонную черту верхняя и нижняя облачность в баллах и высота нижней границы облаков в метрах. Внимание: облачность, как и прочие метеорологические величины в США измеряются автоматическими метеостанциями. Указанные значения в баллах носят условный характер и показывают процент времени, в течение которого, в среднем, лазерный луч высотомера отражался от облаков обратно.
T - Температура воздуха - температура, измеренная на высоте 2 м над землей.
Td - Температура точки росы - температура, при понижении до которой содержащийся в воздухе водяной пар достигнет насыщения.
f - Относительная влажность воздуха - влажноcть воздуха, измеренная на высоте 2 м над землей.
Te - Эффективная температура - температура, которую ощущает одетый по сезону человек в тени. Характеристика душности погоды. При расчете учитывается влияние влажности воздуха и скорости ветра на теплоощущения человека.
Tes - Эффективная температура на солнце - температура, которую ощущает человек, с поправкой на солнечный нагрев. Характеристика знойности погоды. Зависит от высоты солнца над горизонтом, облачности и скорости ветра. Ночью, в пасмурную погоду, а также при ветре 12 м/с и более поправка равна нулю.
P - Атмосферное давление - приведенное к уровню моря атмосферное давление.
Po - Атмосферное давление - измеренное на уровне метеостанции атмосферное давление.
Tmin - Минимальная температура - минимум температуры воздуха на высоте 2 м над землей.
Tmax - Максимальная температура - максимум температуры воздуха на высоте 2 м над землей.
R - Количество осадков - Количество выпавших осадков за 3 или 6 часов, мм.
SD - Снежный покров - Высота снежного покрова, см.